Location: Nairn
(57.5833°N, 3.8667°W)
Time: 10:16:16
(UTC+00:00)

N. Korean satellite - Pass Details

Date: 04 November 2020
Orbit: 452 x 504 km, 97.2° (Epoch: 25 November)

Event Time Altitude Azimuth Distance (km) Brightness Sun altitude
Rises 17:15:11 0° 185° (S) 2,507 10.5 -7.5°
Reaches altitude 10° 17:17:21 10° 194° (SSW) 1,626 9.7 -7.7°
Maximum altitude 17:20:36 36° 262° (W) 757 8.4 -8.2°
Drops below altitude 10° 17:23:50 10° 331° (NNW) 1,618 9.4 -8.6°
Sets 17:25:59 0° 341° (NNW) 2,492 10.2 -8.8°
